Location: Bremen
(53.0793°N, 8.8017°E)
Time: 20:32:24
(UTC+01:00)

Tiros 1 - Pass Details

Date: 09 December 2021
Orbit: 629 x 664 km, 48.4° (Epoch: 18 January)

Event Time Altitude Azimuth Distance (km) Brightness Sun altitude
Rises 16:51:34 0° 211° (SSW) 2,907 11.7 -6.2°
Reaches altitude 10° 16:54:22 10° 194° (SSW) 2,006 10.4 -6.6°
Maximum altitude 16:57:43 20° 148° (SSE) 1,463 9.0 -7.0°
Drops below altitude 10° 17:01:05 10° 101° (E) 2,023 9.2 -7.5°
Enters shadow 17:02:19 - 92° (E) 2,400 9.6 -7.6°
